Location: Horowhenua
(40.7500°S, 175.3333°E)
Time: 00:46:50
(UTC+00:00)

Okean 2 - Pass Details

Date: 28 January 2023
Orbit: 551 x 569 km, 82.5° (Epoch: 20 March)

Event Time Altitude Azimuth Distance (km) Brightness Sun altitude
Exits shadow 16:19:00 - 344° (NNW) 1,900 5.6 -11.0°
Reaches altitude 10° 16:19:08 10° 344° (NNW) 1,843 5.5 -11.0°
Maximum altitude 16:23:10 65° 262° (W) 621 3.4 -10.3°
Drops below altitude 10° 16:27:16 10° 178° (S) 1,866 6.5 -9.7°
Sets 16:29:28 0° 175° (S) 2,770 7.5 -9.4°
